[Date Prev][Date Next][Thread Prev][Thread Next] - [Date Index][Thread Index][Author Index]
2 Line ISS Keps 3-13
- Subject: [sarex] 2 Line ISS Keps 3-13
- From: "Dave Larsen PhD" <doc@xxxxxxxxxxx>
- Date: Wed, 13 Mar 2002 02:22:45 -0800
ISS
1 25544U 98067A 02072.31953378 -.00966015 00000-0 -14439-1 0 1780
2 25544 51.6382 174.5176 0005663 284.6878 132.0205 15.57121119189083
----
Via the sarex mailing list at AMSAT.ORG courtesy of AMSAT-NA.
To unsubscribe, send "unsubscribe sarex" to Majordomo@amsat.org
AMSAT Home